Location: Banios
(43.0451°N, 0.2335°E)
Time: 12:47:15
(UTC+00:00)

A-11 Canister half - Pass Details

Date: 14 May 2021
Orbit: 1513 x 1686 km, 47.2° (Epoch: 14 June)

Event Time Altitude Azimuth Distance (km) Brightness Sun altitude
Rises 19:12:37 0° 291° (WNW) 4,659 14.6 -0.5°
Reaches altitude 10° 19:15:37 10° 292° (WNW) 3,681 13.2 -1.0°
Maximum altitude 19:24:56 88° 204° (SSW) 1,543 9.1 -2.5°
Drops below altitude 10° 19:34:28 10° 116° (ESE) 3,768 10.4 -4.0°
Enters shadow 19:36:05 - 117° (ESE) 4,289 10.6 -4.2°
Sets 19:37:35 0° 117° (ESE) 4,774 - -4.5°
